Date String (YYYY-MM-DD hh:mm:ss) UTC,Instrument flags,Ambient pressure (hPa),Sample flow (lpm),Bypass flow (lpm),Sample temperature (°C),Ambient temperature (°C),ASC tube jacket temperature (°C),LED temperature (°C),Box temperature (°C),Sample RH (%),Span deviation,Mass concentration (μg/m³),Mass concentration (μg/m³),Mass concentration (μg/m³)
DateTimeUTC,F1_M11,P_M11,Q1_M11,Q2_M11,T1_M11,T2_M11,T3_M11,T4_M11,T5_M11,U1_M11,ZSPAN_M11,X2_M11,X0_M11,X1_M11
2023-04-24 15:00:00,,0826.2,4.98,0.00,22.4,22.7,00.0,30.5,24.3,16.2,0000.8,0008.20,0012.52,0007.52
2023-04-24 15:01:00,,0826.2,5.00,0.00,22.4,22.5,00.0,30.6,24.2,16.7,0000.9,0008.24,0012.59,0007.55
2023-04-24 15:02:00,,0826.2,5.01,0.00,22.4,22.2,00.0,30.6,24.1,16.4,0001.3,0008.23,0012.54,0007.56
2023-04-24 15:03:00,,0826.1,5.00,0.00,22.3,21.9,00.0,30.7,24.1,16.8,0002.9,0008.19,0012.32,0007.56
2023-04-24 15:04:00,,0826.2,5.00,0.00,22.3,21.6,00.0,30.7,24.0,17.3,0003.3,0008.15,0011.80,0007.55
2023-04-24 15:05:00,,0826.2,4.99,0.00,22.3,21.4,00.0,30.7,23.9,17.2,0002.6,0008.17,0011.84,0007.55
2023-04-24 15:06:00,,0826.2,5.00,0.00,22.3,21.2,00.0,30.7,23.9,17.6,0002.6,0008.17,0011.91,0007.54
2023-04-24 15:07:00,,0826.2,5.00,0.00,22.3,21.1,00.0,30.7,23.9,17.7,0002.7,0008.15,0011.89,0007.53
2023-04-24 15:08:00,,0826.3,5.00,0.00,22.3,21.0,00.0,30.7,23.9,17.6,0003.2,0008.17,0012.83,0007.55
2023-04-24 15:09:00,,0826.2,5.00,0.00,22.3,21.0,00.0,30.7,23.9,17.6,0003.9,0008.21,0012.98,0007.54
2023-04-24 15:10:00,,0826.2,5.00,0.00,22.3,20.9,00.0,30.7,23.8,17.2,0004.3,0008.23,0013.13,0007.53
2023-04-24 15:11:00,,0826.2,5.00,0.00,22.2,20.9,00.0,30.7,23.9,17.7,0004.1,0008.30,0013.31,0007.53
2023-04-24 15:12:00,,0826.2,5.00,0.00,22.2,20.8,00.0,30.7,23.8,17.7,0004.0,0008.37,0013.57,0007.53
2023-04-24 15:13:00,,0826.2,5.00,0.00,22.2,20.8,00.0,30.7,23.8,17.6,0003.8,0008.41,0013.70,0007.51
2023-04-24 15:14:00,,0826.2,5.00,0.00,22.2,20.7,00.0,30.7,23.8,17.9,0003.7,0008.50,0014.02,0007.51
2023-04-24 15:15:00,,0826.2,5.00,0.00,22.2,20.6,00.0,30.7,23.8,17.3,0004.0,0008.55,0014.61,0007.51
2023-04-24 15:16:00,,0826.2,5.01,0.00,22.2,20.6,00.0,30.7,23.7,17.0,0005.2,0008.55,0014.78,0007.50
2023-04-24 15:17:00,,0826.2,5.01,0.00,22.2,20.6,00.0,30.7,23.7,16.3,0005.0,0008.64,0015.15,0007.49
2023-04-24 15:18:00,,0826.2,5.01,0.00,22.2,20.5,00.0,30.7,23.7,16.6,0004.8,0008.72,0015.76,0007.46
2023-04-24 15:19:00,,0826.2,5.00,0.00,22.1,20.5,00.0,30.6,23.7,16.6,0004.9,0008.80,0015.55,0007.42
2023-04-24 15:20:00,,0826.2,4.99,0.00,22.1,20.5,00.0,30.6,23.7,16.5,0004.5,0008.86,0017.30,0007.39
2023-04-24 15:21:00,,0826.2,4.99,0.00,22.1,20.5,00.0,30.6,23.7,16.7,0004.3,0008.92,0018.55,0007.35
2023-04-24 15:22:00,,0826.2,5.00,0.00,22.1,20.5,00.0,30.6,23.6,16.8,0004.5,0008.98,0019.59,0007.33
2023-04-24 15:23:00,,0826.2,5.01,0.00,22.1,20.5,00.0,30.6,23.6,17.0,0004.6,0008.98,0019.78,0007.30
2023-04-24 15:24:00,,0826.2,5.00,0.00,22.1,20.5,00.0,30.6,23.6,16.9,0004.4,0009.01,0019.91,0007.27
2023-04-24 15:25:00,,0826.2,4.99,0.00,22.1,20.5,00.0,30.6,23.6,17.7,0004.5,0009.01,0020.26,0007.27
2023-04-24 15:26:00,,0826.2,4.99,0.00,22.1,20.5,00.0,30.6,23.6,16.9,0004.5,0009.08,0020.40,0007.27
2023-04-24 15:27:00,,0826.2,5.00,0.00,22.1,20.5,00.0,30.6,23.6,17.2,0003.8,0009.20,0021.39,0007.27
2023-04-24 15:28:00,,0826.2,5.00,0.00,22.1,20.4,00.0,30.5,23.6,17.5,0004.0,0009.19,0022.37,0007.27
2023-04-24 15:29:00,,0826.2,5.01,0.00,22.0,20.4,00.0,30.5,23.6,17.9,0003.6,0009.19,0022.23,0007.29
2023-04-24 15:30:00,,0826.2,5.00,0.00,22.1,20.4,00.0,30.5,23.6,17.0,0004.3,0009.22,0021.84,0007.33
2023-04-24 15:31:00,,0826.2,5.01,0.00,22.1,20.5,00.0,30.5,23.6,17.3,0005.0,0009.23,0020.55,0007.37
2023-04-24 15:32:00,,0826.2,5.00,0.00,22.1,20.5,00.0,30.5,23.7,17.5,0005.4,0009.26,0019.33,0007.44
2023-04-24 15:33:00,,0826.2,5.00,0.00,22.1,20.6,00.0,30.5,23.7,17.5,0005.4,0009.30,0019.15,0007.47
2023-04-24 15:34:00,,0826.2,5.00,0.00,22.1,20.7,00.0,30.5,23.7,17.2,0005.7,0009.28,0019.36,0007.49
2023-04-24 15:35:00,,0826.2,5.00,0.00,22.1,20.7,00.0,30.5,23.7,16.9,0006.3,0009.24,0019.29,0007.52
2023-04-24 15:36:00,,0826.2,5.00,0.00,22.1,20.8,00.0,30.5,23.8,16.8,0006.6,0009.27,0019.40,0007.54
2023-04-24 15:37:00,,0826.2,4.99,0.00,22.2,20.8,00.0,30.5,23.8,16.7,0008.0,0009.20,0019.10,0007.55
2023-04-24 15:38:00,,0826.2,5.00,0.00,22.2,20.8,00.0,30.5,23.8,16.7,0006.0,0009.11,0018.42,0007.59
2023-04-24 15:39:00,,0826.1,4.99,0.00,22.2,20.8,00.0,30.5,23.8,16.4,0006.0,0009.14,0017.82,0007.61
2023-04-24 15:40:00,,0826.1,5.00,0.00,22.2,20.8,00.0,30.5,23.8,17.3,0005.7,0009.14,0017.40,0007.63
2023-04-24 15:41:00,,0826.1,5.00,0.00,22.2,20.8,00.0,30.6,23.8,16.9,0003.6,0009.11,0017.39,0007.67
2023-04-24 15:42:00,,0826.1,5.00,0.00,22.2,20.8,00.0,30.6,23.8,16.6,0001.9,0009.06,0017.65,0007.68
2023-04-24 15:43:00,,0826.0,5.01,0.00,22.2,20.7,00.0,30.6,23.8,16.2,0002.4,0009.00,0017.60,0007.68
2023-04-24 15:44:00,,0826.1,4.99,0.00,22.2,20.8,00.0,30.6,23.8,16.2,0003.0,0008.92,0016.59,0007.68
2023-04-24 15:45:00,,0826.1,5.00,0.00,22.2,20.8,00.0,30.6,23.8,16.1,0003.6,0008.89,0016.50,0007.71
2023-04-24 15:46:00,,0826.1,5.00,0.00,22.2,20.8,00.0,30.6,23.8,16.3,0003.7,0008.90,0016.44,0007.73
2023-04-24 15:47:00,,0826.1,5.00,0.00,22.2,20.9,00.0,30.6,23.9,16.6,0003.6,0008.91,0016.41,0007.76
2023-04-24 15:48:00,,0826.0,5.00,0.00,22.2,20.9,00.0,30.6,23.8,16.6,0002.9,0008.89,0015.96,0007.78
2023-04-24 15:49:00,,0826.0,5.00,0.00,22.2,20.9,00.0,30.6,23.9,16.3,0004.0,0008.87,0015.33,0007.77
2023-04-24 15:50:00,,0826.0,5.00,0.00,22.3,20.9,00.0,30.6,23.9,16.3,0004.2,0008.78,0014.60,0007.77
2023-04-24 15:51:00,,0826.0,5.00,0.00,22.3,21.0,00.0,30.6,23.9,15.9,0003.9,0008.74,0014.56,0007.76
2023-04-24 15:52:00,,0826.0,5.00,0.00,22.3,21.0,00.0,30.6,23.9,15.7,0003.5,0008.71,0014.46,0007.74
2023-04-24 15:53:00,,0826.0,5.00,0.00,22.3,21.0,00.0,30.6,23.9,15.8,0003.3,0008.69,0014.62,0007.73
2023-04-24 15:54:00,,0826.0,5.00,0.00,22.3,21.0,00.0,30.6,23.9,15.8,0002.7,0008.63,0014.77,0007.70
2023-04-24 15:55:00,,0826.1,5.00,0.00,22.3,21.0,00.0,30.7,23.9,15.5,0001.9,0008.61,0014.85,0007.72
2023-04-24 15:56:00,,0826.1,5.00,0.00,22.3,21.0,00.0,30.7,23.9,15.7,0001.5,0008.58,0014.32,0007.71
2023-04-24 15:57:00,,0826.0,5.00,0.00,22.3,20.9,00.0,30.7,23.9,15.6,0001.4,0008.52,0014.02,0007.70
2023-04-24 15:58:00,,0826.1,5.00,0.00,22.3,20.9,00.0,30.7,23.9,15.5,0001.1,0008.47,0013.81,0007.70
2023-04-24 15:59:00,,0826.1,5.00,0.00,22.3,20.9,00.0,30.7,23.9,15.6,0001.0,0008.45,0014.17,0007.69
